Simultaneous Nadir Overpasses (SNOs) Predictions

Prediction of SNOs between FY3D and AQUA Satellite Orbit:

Table of predicted SNOs for the next 14.0 days since TLE Epoch: 3/5/2022
Index Date (FY3D) Time (FY3D) Lat,Lon (FY3D) SZA (FY3D ) Date (AQUA) Time (AQUA) Lat,Lon (AQUA) SZA (AQUA ) Distance(km) Time Diff (sec)
1 03/06/2022 07:04:36 79.48, 44.25 86.70 03/06/2022 07:05:49 79.70, 45.34 86.76 33.19 73
2 03/06/2022 07:53:00 -73.45,-123.01 100.88 03/06/2022 07:52:59 -73.44,-122.99 100.88 0.65 1
3 03/06/2022 08:39:20 58.99, 61.78 64.84 03/06/2022 08:38:07 58.85, 60.92 64.61 51.76 73
4 03/08/2022 22:29:45 -74.58, 15.09 100.66 03/08/2022 22:30:49 -74.58, 15.06 100.67 1.14 64
5 03/08/2022 23:19:58 72.88,-173.53 77.49 03/08/2022 23:19:44 72.89,-173.59 77.50 1.99 14
6 03/11/2022 13:56:53 74.48, -36.41 78.19 03/11/2022 13:57:43 74.48, -36.41 78.18 0.09 50
7 03/11/2022 14:47:03 -72.79, 134.91 103.66 03/11/2022 14:46:36 -72.79, 134.88 103.65 0.90 27
8 03/14/2022 05:23:55 -74.24, -87.54 103.13 03/14/2022 05:24:32 -74.24, -87.56 103.13 0.66 37
9 03/14/2022 06:14:06 72.43, 83.88 74.92 03/14/2022 06:13:25 72.44, 83.84 74.93 1.50 41
10 03/16/2022 20:51:07 74.34,-139.57 75.94 03/16/2022 20:51:29 74.33,-139.49 75.92 2.56 22



Historial Predications of SNOs between FY3D and AQUA
